Tracking 31027 objects as of 19-Jul-2025
HD Live streaming from Space Station
objects crossing your sky now

FENGYUN 1C DEB

Track FENGYUN 1C DEB now!
10-day predictions


NORAD ID: 29805
Int'l Code: 1999-025CX
Perigee: 859.2 km
Apogee: 1,135.6 km
Inclination: 99.5 °
Period: 104.9 minutes
Semi major axis: 7368 km
RCS: 0.0153 m2 (small)
Launch date: May 10, 1999
Source: People's Republic of China (PRC)
Launch site: Taiyaun Space Center, China (TSC)

Note: This is SATELLITE DEBRIS
Your satellite tracking list
FLOCK 4Q 34
Track 1 satellite(s)




NASA's NSSDC Master Catalog

Two Line Element Set (TLE):
1 29805U 99025CX  25199.60030501  .00000086  00000-0  12634-3 0  9993
2 29805  99.4761 252.5745 0187583 252.6341 105.4215 13.72597674926845
Source of the keplerian elements: AFSPC